Showing default

HULIANWANG DIGUI-113, 66923

Orbit data source: Space-Track

HULIANWANG DIGUI-113, 66923 is a payload satellite owned by Zhongguo Xingwang (CN) in LEO that was launched on Sat, 06 Dec 2025 UTC via a CHANG ZHENG 8A launch vehicle from the Wenchang Satellite Launch Center (WSC). Payload-class satellites include a variety of spacecraft equipped with specific instruments for various scientific and technological missions. These include communications satellites like Starlink; space stations such as the ISS; scientific satellites like the Hubble; Earth observation satellites from companies like Planet Labs, Umbra, and HawkEye 360; GPS; miniature CubeSats for education and research; and military/defense satellites.

Loading next visibility...
Identifier
66923, 2025-285J
Orbit
LEO
Country
Flag of CNCN / PRC
Related business
Manufacturer
CAST
Mission
Operational Civil Communications
Bus & Motor
XINGWANG C, Unknown motor
Mass
~700 kg wet, ~700 kg dry
Launch date (UTC)
2025-12-06 (6 months ago)
Launch vehicle
CHANG ZHENG 8A
Launch site
Wenchang Satellite Launch Center (WSC)
Object type
Payload
Rocket body
Debris
Shape & HBR
Box + 2 Pan, 14.5 m
Radar Cross Section
5.935 m², Large (>1 m²)

Expand to show TLE details & history
Last TLE update: 14 hours ago

TLE from 14 hours ago
0 HULIANWANG DIGUI-113
1 66923U 25285J   26171.26674205 -.00000101  00000-0  48854-4 0  9993
2 66923  50.0078 134.6598 0001115 304.0963  55.9803 13.29322780 26473
Epoch: 2026-06-20T06:24Z
TLE epoch observation values (Epoch: 2026-06-20T06:24:06.513Z)
Latitude
-0.00002°
Longitude
130.14882°
Altitude
1,149.356 km
Speed
7.28 km/s
True Right ascension
08h 58m 38s
True Declination
0° 00' 00"
Sunlit
Object was in daylight at epoch
Visualization orbit readout
Latitude
Unknown
Longitude
Unknown
Altitude
Unknown
Speed
Unknown
Apparent Right ascension
Unknown
Apparent Declination
Unknown
Sunlit
N/A
Visualization observer readout
Local Sidereal Time
07:13:42
Azimuth
Unknown
Elevation
Unknown
Doppler factor
Unknown
Orbital elements
Apogee altitude
1,150.862 km
Perigee altitude
1,149.184 km
Semi-major axis
7,528.16 km
Eccentricity
0.00011
Inclination
50.0078°
RAAN
134.6598°
Arg. of periapsis
304.0963°
True anomaly
55.99089°
Mean anomaly
55.9803°
Eccentric anomaly
55.9856°
Mean motion
3.32284 °/min
Orbital period
108.34 mins
BSTAR
0.000048854
Loading maneuver chart data...
Computing Atmospheric mass density...
Loading historical data...
Loading historical data...
Loading historical data...
Loading historical data...
Loading historical data...
Loading historical data...
Loading historical data...

Documentation

Showing up to 5 results
|